Location: Gadern
(49.5873°N, 8.8138°E)
Time: 00:45:55
(UTC+00:00)

COSMOS 2406 - Pass Details

Date: 19 May 2025
Orbit: 845 x 859 km, 71.0° (Epoch: 22 June)

Event Time Altitude Azimuth Distance (km) Brightness Sun altitude
Exits shadow 21:59:08 30° 174° (S) 1,467 3.9 -18.1°
Maximum altitude 22:01:44 55° 112° (ESE) 1,013 3.3 -18.2°
Drops below altitude 10° 22:07:18 10° 36° (NE) 2,490 6.1 -18.5°
Sets 22:09:48 0° 32° (NNE) 3,432 7.0 -18.6°
